EW1994 Weather Reports


Display with metric or nautical units.
time (UTC)temp
F
wind
direction
speed
MPH
gust
MPH
rain 1hr
in
rain 24hr
in
rain mn
in
humidity
%
barometer
mb
20180719230614 65 160 0.0 6.0 0.00 0.00 0.00 70 1021.2
20180719225113 64 111 1.0 4.0 0.00 0.00 0.00 71 1021.3
20180719223614 65 180 1.0 5.0 0.00 0.00 0.00 70 1021.4
20180719222113 64 213 0.0 3.0 0.00 0.00 0.00 72 1021.4
20180719220612 63 155 2.0 9.0 0.00 0.00 0.00 72 1021.4
20180719215113 63 201 1.0 9.0 0.00 0.00 0.00 74 1021.5
20180719213613 62 216 3.0 10.0 0.00 0.00 0.00 75 1021.6
20180719212109 62 160 1.0 7.0 0.00 0.00 0.00 77 1021.8
20180719210608 62 155 2.0 9.0 0.00 0.00 0.00 77 1021.8
20180719205115 63 141 3.0 8.0 0.00 0.00 0.00 75 1021.7
20180719203607 64 146 2.0 7.0 0.00 0.00 0.00 73 1021.8
20180719202113 64 136 1.0 7.0 0.00 0.00 0.00 73 1021.7
20180719200601 63 238 0.0 3.0 0.00 0.00 0.00 74 1021.7
20180719195100 62 155 2.0 7.0 0.00 0.00 0.00 73 1021.8
20180719193557 62 227 0.0 7.0 0.00 0.00 0.00 75 1021.7
20180719192058 62 159 2.0 8.0 0.00 0.00 0.00 74 1021.7
20180719190604 62 157 1.0 3.0 0.00 0.00 0.00 76 1021.8
20180719185056 61 188 0.0 4.0 0.00 0.00 0.00 76 1021.7
20180719183552 61 186 0.0 4.0 0.00 0.00 0.00 78 1021.7
20180719182051 61 221 0.0 3.0 0.00 0.00 0.00 78 1021.6
20180719180553 60 244 2.0 7.0 0.00 0.00 0.00 79 1021.6
20180719175048 60 153 0.0 5.0 0.00 0.00 0.00 80 1021.7
20180719173547 60 153 1.0 5.0 0.00 0.00 0.00 80 1021.7
20180719172044 59 76 0.0 3.0 0.00 0.00 0.00 82 1021.7
20180719170542 59 164 0.0 2.0 0.00 0.00 0.00 82 1021.8
20180719165036 58 243 1.0 3.0 0.00 0.00 0.00 84 1021.8
20180719163533 58 188 0.0 1.0 0.00 0.00 0.00 86 1021.8
20180719162037 57 187 0.0 1.0 0.00 0.00 0.00 86 1021.7
20180719160532 57 187 0.0 1.0 0.00 0.00 0.00 87 1021.6
20180719155029 57 207 0.0 2.0 0.00 0.00 0.00 87 1021.5
20180719153526 57 254 0.0 2.0 0.00 0.00 0.00 87 1021.4
20180719152029 57 157 0.0 2.0 0.00 0.00 0.00 87 1021.5
20180719150524 57 157 0.0 2.0 0.00 0.00 0.00 86 1021.5
20180719145022 57 157 0.0 0.0 0.00 0.00 0.00 86 1021.4
20180719143524 57 157 0.0 0.0 0.00 0.00 0.00 85 1021.3
20180719142017 57 157 0.0 0.0 0.00 0.00 0.00 86 1021.1
20180719140515 57 157 0.0 0.0 0.00 0.00 0.00 86 1020.9
20180719135016 57 157 0.0 0.0 0.00 0.00 0.00 87 1020.8
20180719133510 57 157 0.0 0.0 0.00 0.00 0.00 87 1020.7
20180719132013 56 157 0.0 0.0 0.00 0.00 0.00 87 1020.6
20180719130513 56 157 0.0 0.0 0.00 0.00 0.00 87 1020.4
20180719125007 56 157 0.0 0.0 0.00 0.00 0.00 87 1020.5
20180719123509 56 157 0.0 0.0 0.00 0.00 0.00 87 1020.5
20180719122009 56 157 0.0 0.0 0.00 0.00 0.00 87 1020.4
20180719120505 56 157 0.0 0.0 0.00 0.00 0.00 87 1020.5
20180719115004 56 157 0.0 0.0 0.00 0.00 0.00 87 1020.5
20180719113503 56 157 0.0 0.0 0.00 0.00 0.00 87 1020.5
20180719112003 56 157 0.0 0.0 0.00 0.00 0.00 87 1020.5
20180719110502 56 157 0.0 0.0 0.00 0.00 0.00 87 1020.5
20180719105000 56 157 0.0 0.0 0.00 0.00 0.00 87 1020.4
20180719103500 55 157 0.0 0.0 0.00 0.00 0.00 87 1020.5
20180719102003 55 157 0.0 0.0 0.00 0.00 0.00 87 1020.6
20180719100501 55 157 0.0 0.0 0.00 0.00 0.00 87 1020.5
20180719095004 55 157 0.0 0.0 0.00 0.00 0.00 87 1020.4
20180719093458 55 157 0.0 0.0 0.00 0.00 0.00 87 1020.4
20180719091955 56 157 0.0 0.0 0.00 0.00 0.00 87 1020.4
20180719090500 56 157 0.0 0.0 0.00 0.00 0.00 87 1020.4
20180719084956 55 157 0.0 0.0 0.00 0.00 0.00 87 1020.5
20180719083454 55 157 0.0 0.0 0.00 0.00 0.00 87 1020.4
20180719081952 56 157 0.0 0.0 0.00 0.00 0.00 87 1020.4
20180719080454 56 157 0.0 0.0 0.00 0.00 0.00 86 1020.4
20180719074953 56 157 0.0 0.0 0.00 0.00 0.00 86 1020.4
20180719073450 57 157 0.0 0.0 0.00 0.00 0.00 85 1020.4
20180719071950 57 157 0.0 1.0 0.00 0.00 0.00 84 1020.4
20180719070445 58 157 0.0 0.0 0.00 0.00 0.00 83 1020.5
20180719064941 58 157 0.0 1.0 0.00 0.00 0.00 83 1020.5
20180719063441 59 159 0.0 1.0 0.00 0.00 0.00 82 1020.4
20180719061941 59 124 0.0 1.0 0.00 0.00 0.00 81 1020.4
20180719060439 60 160 0.0 0.0 0.00 0.00 0.00 81 1020.3
20180719054935 60 160 0.0 1.0 0.00 0.00 0.00 80 1020.4
20180719053435 60 160 0.0 1.0 0.00 0.00 0.00 81 1020.5
20180719051936 60 160 0.0 1.0 0.00 0.00 0.00 81 1020.5
20180719050432 60 160 0.0 1.0 0.00 0.00 0.00 81 1020.4
20180719044934 60 160 0.0 1.0 0.00 0.00 0.00 81 1020.3
20180719043430 60 160 0.0 0.0 0.00 0.00 0.00 81 1020.2
20180719041933 61 160 0.0 1.0 0.00 0.00 0.00 80 1019.9
20180719040430 61 160 0.0 1.0 0.00 0.00 0.00 79 1019.8
20180719034929 62 160 0.0 2.0 0.00 0.00 0.00 78 1019.8
20180719033428 63 160 0.0 4.0 0.00 0.00 0.00 76 1019.7
20180719031932 64 192 0.0 5.0 0.00 0.00 0.00 74 1019.7
20180719030427 65 140 0.0 3.0 0.00 0.00 0.00 72 1019.6
20180719024929 67 89 0.0 3.0 0.00 0.00 0.00 71 1019.5
20180719023428 69 166 0.0 4.0 0.00 0.00 0.00 71 1019.4
20180719021927 71 72 0.0 2.0 0.00 0.00 0.00 74 1019.4
20180719020426 72 67 0.0 1.0 0.00 0.00 0.00 72 1019.4
20180719014926 72 66 0.0 4.0 0.00 0.00 0.00 67 1019.5
20180719013423 71 86 0.0 0.0 0.00 0.00 0.00 71 1019.5
20180719011923 72 153 0.0 1.0 0.00 0.00 0.00 71 1019.6
20180719010424 72 40 0.0 1.0 0.00 0.00 0.00 70 1019.7
20180719004923 74 40 0.0 2.0 0.00 0.00 0.00 67 1019.7
20180719003422 74 22 0.0 1.0 0.00 0.00 0.00 64 1019.9
20180719001920 74 23 1.0 5.0 0.00 0.00 0.00 62 1019.9
20180719000422 72 22 0.0 3.0 0.00 0.00 0.00 66 1020.1
20180718234920 73 277 0.0 5.0 0.00 0.00 0.00 66 1020.2
20180718233419 75 29 0.0 5.0 0.00 0.00 0.00 61 1020.3
20180718231919 76 142 0.0 3.0 0.00 0.00 0.00 61 1020.5